Location: Ljubljana
(46.0552°N, 14.5144°E)
Time: 13:32:59
(UTC+02:00)

ISS - Visible Passes

Search period start: 22 October 2019 00:00
Search period end: 31 October 2019 23:00
Orbit: 411 x 421 km, 51.6° (Epoch: 22 October)

Date Brightness Start Highest point End Pass type
(mag) Time Alt. Az. Time Alt. Az. Time Alt. Az.
22 Oct -0.4 06:51:29 10° SSE 06:52:44 12° SE 06:53:59 10° ESE visible
24 Oct -1.6 06:49:01 10° SSW 06:51:57 28° SE 06:54:52 10° E visible
25 Oct -1.0 06:01:11 10° S 06:03:31 18° SE 06:05:51 10° E visible
26 Oct -0.7 05:14:18 10° SE 05:15:08 11° SE 05:15:58 10° ESE visible
26 Oct -3.4 06:47:58 10° SW 06:51:17 66° SSE 06:54:39 10° ENE visible
27 Oct -2.6 05:00:47 20° SSW 05:02:44 41° SE 05:05:57 10° ENE visible
28 Oct -1.7 04:14:38 25° SE 04:14:38 25° SE 04:17:06 10° E visible
28 Oct -3.6 05:47:33 11° WSW 05:50:46 60° NNW 05:54:07 10° ENE visible
29 Oct -3.9 05:01:15 47° WSW 05:02:07 87° NNW 05:05:29 10° ENE visible
30 Oct -1.9 04:14:50 31° E 04:14:50 31° E 04:16:49 10° ENE visible
30 Oct -2.9 05:47:44 14° W 05:50:21 37° NNW 05:53:32 10° ENE visible
31 Oct -3.4 05:01:14 44° NW 05:01:35 47° NNW 05:04:52 10° ENE visible
